ONEWEB-0012 1 44057U 19010A 21015.58335648 .00033886 00000-0 81754-1 0 9996 2 44057 87.9176 291.9570 0001786 75.6916 212.5590 13.21789984 1714 ONEWEB-0010 1 44058U 19010B 21015.58335648 .00034039 00000-0 82115-1 0 9990 2 44058 87.9178 291.9627 0001588 79.6579 200.9211 13.21795655 1778 ONEWEB-0008 1 44059U 19010C 21015.58335648 .00033712 00000-0 81337-1 0 9993 2 44059 87.9183 291.9700 0001749 77.0171 218.9552 13.21790004 1710 ONEWEB-0007 1 44060U 19010D 21015.58335648 .00034197 00000-0 82502-1 0 9998 2 44060 87.9176 291.9586 0001954 80.4482 192.8787 13.21789969 1748 ONEWEB-0006 1 44061U 19010E 21015.52746780 .00000075 00000-0 15083-3 0 9996 2 44061 87.9179 291.9801 0001654 75.9788 284.1529 13.21810009 91093 ONEWEB-0011 1 44062U 19010F 21015.58335648 .00034481 00000-0 83181-1 0 9990 2 44062 87.9185 291.9788 0002021 70.6559 187.8651 13.21793255 1710 ONEWEB-0013 1 45131U 20008A 21015.58335648 .00046910 00000-0 13572+0 0 9992 2 45131 87.9134 84.9855 0001274 96.4394 96.9241 13.09323572 47890 ONEWEB-0017 1 45132U 20008B 21015.91667824 .00008180 00000-0 23377-1 0 9997 2 45132 87.8813 69.5847 0002300 91.8321 69.3737 13.10371687 49645 ONEWEB-0020 1 45133U 20008C 21015.91667824 .00007545 00000-0 21564-1 0 9998 2 45133 87.8793 69.5720 0001295 100.3582 207.7958 13.10361021 50039 ONEWEB-0021 1 45134U 20008D 21015.91667824 .00007193 00000-0 20557-1 0 9999 2 45134 87.8709 69.6468 0001475 101.1173 133.5742 13.10362380 50443 ONEWEB-0022 1 45135U 20008E 21015.91667824 .00009687 00000-0 27688-1 0 9992 2 45135 87.8812 69.5656 0002469 95.4920 21.4863 13.10366310 50026 ONEWEB-0023 1 45136U 20008F 21015.91667824 .00006453 00000-0 18437-1 0 9993 2 45136 87.8731 69.6717 0001200 71.3784 104.5325 13.10369226 49752 ONEWEB-0024 1 45137U 20008G 21015.91667824 .00007589 00000-0 21692-1 0 9992 2 45137 87.8738 69.6487 0001386 95.2043 220.1073 13.10352496 49916 ONEWEB-0025 1 45138U 20008H 21015.91667824 .00007276 00000-0 20793-1 0 9997 2 45138 87.8798 69.6528 0001661 92.1958 135.1524 13.10365937 50233 ONEWEB-0026 1 45139U 20008J 21015.91667824 -.01301661 00000-0 -48865+0 0 9994 2 45139 87.6891 55.8160 0023537 121.5177 237.9942 14.35191770 52407 ONEWEB-0028 1 45140U 20008K 21015.58335648 .00035429 00000-0 10109+0 0 9998 2 45140 87.8799 69.6615 0001457 92.6772 47.2451 13.10358533 49364 ONEWEB-0032 1 45141U 20008L 21015.91667824 .00008775 00000-0 25082-1 0 9992 2 45141 87.8789 69.6743 0001684 98.9510 54.8000 13.10364843 50083 ONEWEB-0033 1 45142U 20008M 21015.91667824 .00007124 00000-0 20360-1 0 9994 2 45142 87.8769 69.6183 0001748 100.2003 178.5686 13.10360281 50036 ONEWEB-0035 1 45143U 20008N 21015.91667824 .00009479 00000-0 27092-1 0 9999 2 45143 87.8760 69.6193 0001823 95.1227 29.2556 13.10371960 49743 ONEWEB-0036 1 45144U 20008P 21015.91667824 .00008654 00000-0 24732-1 0 9992 2 45144 87.8811 69.5603 0001601 86.9320 81.5048 13.10369451 50158 ONEWEB-0038 1 45145U 20008Q 21015.58335648 -.01338321 00000-0 -63594+0 0 9999 2 45145 87.6157 55.8425 0021801 165.6564 359.7163 14.23137559 51470 ONEWEB-0039 1 45146U 20008R 21015.91667824 .00007099 00000-0 20286-1 0 9996 2 45146 87.8799 69.5993 0001259 120.6641 136.0545 13.10365520 49865 ONEWEB-0040 1 45147U 20008S 21015.91667824 .00007230 00000-0 20664-1 0 9994 2 45147 87.8793 69.6447 0001443 106.0185 187.4253 13.10358494 49566 ONEWEB-0041 1 45148U 20008T 21015.58335648 -.01406156 00000-0 -54087+0 0 9991 2 45148 87.6738 55.9378 0018651 138.5897 16.9037 14.33715895 52067 ONEWEB-0043 1 45149U 20008U 21015.91667824 .00007151 00000-0 20437-1 0 9996 2 45149 87.8697 69.6380 0000976 101.3521 184.7514 13.10362679 49873 ONEWEB-0044 1 45150U 20008V 21015.91667824 .00008993 00000-0 25701-1 0 9992 2 45150 87.8718 69.6479 0001362 104.7970 41.6503 13.10370102 50177 ONEWEB-0045 1 45151U 20008W 21015.58335648 -.01330144 00000-0 -59428+0 0 9992 2 45151 87.6103 55.8913 0017027 168.3311 345.1227 14.26396768 51499 ONEWEB-0047 1 45152U 20008X 21015.91667824 .00008144 00000-0 23274-1 0 9995 2 45152 87.8690 69.6535 0001675 96.6253 86.5525 13.10370272 49900 ONEWEB-0048 1 45153U 20008Y 21015.91667824 .00007676 00000-0 21937-1 0 9999 2 45153 87.8677 69.6479 0001485 89.3638 115.9447 13.10364476 49491 ONEWEB-0049 1 45154U 20008Z 21015.91667824 .00007903 00000-0 22587-1 0 9995 2 45154 87.8804 69.5997 0001593 78.3547 119.6156 13.10363776 49732 ONEWEB-0051 1 45155U 20008AA 21015.91667824 -.01339747 00000-0 -49352+0 0 9990 2 45155 87.6826 55.8470 0023468 127.4027 239.6122 14.36257608 52233 ONEWEB-0052 1 45156U 20008AB 21015.91667824 .00007603 00000-0 21728-1 0 9990 2 45156 87.8799 69.5980 0001373 48.1266 164.5220 13.10363176 49621 ONEWEB-0053 1 45157U 20008AC 21015.91667824 .00007389 00000-0 21119-1 0 9996 2 45157 87.8794 69.6001 0001321 104.6588 196.0767 13.10355050 49594 ONEWEB-0054 1 45158U 20008AD 21015.91667824 .00009363 00000-0 26761-1 0 9999 2 45158 87.8810 69.6081 0001837 103.5368 28.1747 13.10363962 49705 ONEWEB-0056 1 45159U 20008AE 21015.91667824 .00007471 00000-0 21352-1 0 9999 2 45159 87.8806 69.6013 0001642 89.6215 130.4393 13.10366144 49850 ONEWEB-0057 1 45160U 20008AF 21015.91667824 .00008124 00000-0 23218-1 0 9990 2 45160 87.8813 69.5671 0001368 100.8577 89.7538 13.10366636 49764 ONEWEB-0058 1 45161U 20008AG 21015.91667824 .00007095 00000-0 20275-1 0 9997 2 45161 87.8623 69.6286 0001525 106.5944 142.8901 13.10368999 50090 ONEWEB-0059 1 45162U 20008AH 21015.91667824 .00007046 00000-0 20136-1 0 9990 2 45162 87.8713 69.6352 0001668 107.9980 156.0798 13.10360612 49989 ONEWEB-0062 1 45163U 20008AJ 21015.91667824 .00009232 00000-0 26387-1 0 9994 2 45163 87.8789 69.6023 0001594 87.1993 51.8219 13.10369229 49869 ONEWEB-0065 1 45164U 20008AK 21015.91667824 .00007109 00000-0 20314-1 0 9990 2 45164 87.8718 69.6542 0001737 96.8532 145.1581 13.10366665 49548 ONEWEB-0066 1 45424U 20020A 21015.58335648 .00015915 00000-0 44792-1 0 9992 2 45424 87.8856 54.4543 0002098 128.4712 103.1643 13.11416375 43368 ONEWEB-0067 1 45425U 20020B 21015.58335648 .00014765 00000-0 41537-1 0 9999 2 45425 87.8830 54.4712 0001662 101.3513 299.7437 13.11451146 43418 ONEWEB-0080 1 45426U 20020C 21015.58335648 .00014088 00000-0 39681-1 0 9995 2 45426 87.8850 54.4462 0002018 102.5413 210.1826 13.11368101 43384 ONEWEB-0090 1 45427U 20020D 21015.58335648 .00015125 00000-0 42569-1 0 9998 2 45427 87.8863 54.4576 0001675 97.9228 163.1787 13.11418466 43354 ONEWEB-0061 1 45428U 20020E 21015.58335648 -.00011899 00000-0 -33659-1 0 9995 2 45428 87.8837 54.4354 0006448 30.0958 17.9102 13.11395465 1715 ONEWEB-0081 1 45429U 20020F 21015.58335648 .00016514 00000-0 46397-1 0 9996 2 45429 87.8867 54.3817 0028871 8.4476 201.6661 13.11391586 43404 ONEWEB-0069 1 45430U 20020G 21015.58335648 .00015326 00000-0 43134-1 0 9994 2 45430 87.8857 54.4577 0001658 97.8082 155.8673 13.11419694 43356 ONEWEB-0031 1 45431U 20020H 21015.58335648 .00013986 00000-0 39371-1 0 9993 2 45431 87.8842 54.4620 0001571 92.8222 248.9952 13.11409753 43332 ONEWEB-0027 1 45432U 20020J 21015.91667824 .00061487 00000-0 63449-2 0 9998 2 45432 87.5628 44.2539 0024245 295.3371 281.4310 14.89678409 44889 ONEWEB-0064 1 45433U 20020K 21015.58335648 -.00055529 00000-0 -15766+0 0 9996 2 45433 87.8845 54.4656 0001384 101.2873 247.9442 13.11415335 43364 ONEWEB-0018 1 45434U 20020L 21015.58335648 .00015507 00000-0 43649-1 0 9990 2 45434 87.8856 54.4438 0001628 94.5360 151.8433 13.11409292 43314 ONEWEB-0083 1 45435U 20020M 21015.58335648 .00014592 00000-0 41073-1 0 9993 2 45435 87.8854 54.4499 0001581 93.5351 189.5719 13.11416645 43356 ONEWEB-0095 1 45436U 20020N 21015.58335648 .00013970 00000-0 39331-1 0 9997 2 45436 87.8846 54.4536 0001601 95.2065 239.4176 13.11401946 43354 ONEWEB-0092 1 45437U 20020P 21015.58335648 .00039593 00000-0 11129+0 0 9990 2 45437 87.8849 54.3842 0004105 32.9601 22.4337 13.11359319 43459 ONEWEB-0085 1 45438U 20020Q 21015.58335648 .00014212 00000-0 40001-1 0 9995 2 45438 87.8851 54.4662 0001648 96.1426 209.0372 13.11418031 43358 ONEWEB-0096 1 45439U 20020R 21015.58335648 .00014757 00000-0 41540-1 0 9999 2 45439 87.8854 54.4560 0001847 82.7841 192.9650 13.11411385 43345 ONEWEB-0037 1 45440U 20020S 21015.59033610 -.00000498 00000-0 -14404-2 0 9995 2 45440 87.8849 54.4701 0001735 67.5179 292.6133 13.11417925 43361 ONEWEB-0042 1 45441U 20020T 21015.91667824 .00000013 00000-0 00000+0 0 9997 2 45441 87.8838 54.3932 0001525 100.9081 61.3854 13.09499780 43385 ONEWEB-0098 1 45442U 20020U 21015.91667824 .00030885 00000-0 86836-1 0 9991 2 45442 87.8844 54.3992 0001724 105.8655 346.6898 13.11401635 43350 ONEWEB-0055 1 45443U 20020V 21015.58335648 .00014137 00000-0 39795-1 0 9995 2 45443 87.8815 54.4120 0001833 99.5325 271.6966 13.11412244 43291 ONEWEB-0093 1 45444U 20020W 21015.58335648 -.00028988 00000-0 -83123-1 0 9991 2 45444 87.8854 54.4573 0012315 23.0072 179.6858 13.10525299 43353 ONEWEB-0029 1 45445U 20020X 21015.58335648 .00014286 00000-0 40212-1 0 9998 2 45445 87.8833 54.4387 0001801 95.0913 283.4538 13.11415801 43330 ONEWEB-0068 1 45446U 20020Y 21015.58335648 .00016116 00000-0 45358-1 0 9999 2 45446 87.8856 54.4578 0001453 115.6919 108.6090 13.11417925 43279 ONEWEB-0046 1 45447U 20020Z 21015.58335648 .00015733 00000-0 44278-1 0 9994 2 45447 87.8858 54.4602 0001552 92.5266 146.4295 13.11419425 43294 ONEWEB-0063 1 45448U 20020AA 21015.58335648 .00014616 00000-0 41145-1 0 9994 2 45448 87.8833 54.4809 0001069 83.9126 309.2021 13.11408139 43363 ONEWEB-0019 1 45449U 20020AB 21015.58335648 .00016275 00000-0 45806-1 0 9996 2 45449 87.8861 54.4292 0001859 93.6221 123.4242 13.11415717 43217 ONEWEB-0094 1 45450U 20020AC 21015.91667824 .00060378 00000-0 61025-2 0 9994 2 45450 87.5756 44.4844 0024588 298.3220 157.7466 14.90511898 44830 ONEWEB-0087 1 45451U 20020AD 21015.58335648 .00014128 00000-0 39764-1 0 9990 2 45451 87.8848 54.4563 0001781 95.0700 268.6660 13.11419966 43269 ONEWEB-0082 1 45452U 20020AE 21015.58335648 .00014021 00000-0 39468-1 0 9994 2 45452 87.8830 54.4341 0001673 104.3557 252.1847 13.11414560 43359 ONEWEB-0050 1 45453U 20020AF 21015.91667824 .00058166 00000-0 52804-2 0 9994 2 45453 87.5396 43.4663 0023583 294.1679 340.0521 14.94805781 44950 ONEWEB-0034 1 45454U 20020AG 21015.58335648 .00014314 00000-0 40291-1 0 9997 2 45454 87.8850 54.4531 0001439 88.3785 209.4843 13.11412428 43271 ONEWEB-0060 1 45455U 20020AH 21015.58335648 .00014926 00000-0 42009-1 0 9996 2 45455 87.8857 54.4431 0001632 94.2718 174.1242 13.11418144 43233 ONEWEB-0086 1 45456U 20020AJ 21015.58335648 .00016553 00000-0 46584-1 0 9997 2 45456 87.8855 54.4425 0001573 92.3262 109.8515 13.11419230 43271 ONEWEB-0088 1 45457U 20020AK 21015.58335648 .00014469 00000-0 40730-1 0 9999 2 45457 87.8848 54.4799 0001456 91.1168 199.4301 13.11411191 1708 ONEWEB-0102 1 47258U 20100A 21015.83334491 -.01373584 00000-0 -67555-1 0 9995 2 47258 87.4352 29.6482 0008772 162.8492 349.9807 15.21345463 4350 ONEWEB-0109 1 47259U 20100B 21015.83334491 -.01329041 00000-0 -12277+0 0 9994 2 47259 87.3580 29.7608 0008884 160.3710 35.3068 14.97878266 4320 ONEWEB-0110 1 47260U 20100C 21015.83334491 -.01384713 00000-0 -69339-1 0 9996 2 47260 87.4321 29.6447 0008333 160.9256 329.7251 15.20766168 4357 ONEWEB-0111 1 47261U 20100D 21015.83334491 -.01334602 00000-0 -12259+0 0 9996 2 47261 87.3689 29.7754 0008840 164.6671 57.8892 14.98109476 4325 ONEWEB-0114 1 47262U 20100E 21015.83334491 -.01347551 00000-0 -12556+0 0 9994 2 47262 87.3497 29.7669 0009798 152.9281 19.0334 14.97578687 4322 ONEWEB-0117 1 47263U 20100F 21015.58335648 -.01408611 00000-0 -11717+0 0 9995 2 47263 87.3774 29.8357 0010175 172.5989 307.7050 15.02047915 1758 ONEWEB-0118 1 47264U 20100G 21015.83334491 -.01393635 00000-0 -63456-1 0 9997 2 47264 87.4362 29.6189 0012645 161.4034 113.2503 15.23928925 4350 ONEWEB-0119 1 47265U 20100H 21015.83334491 -.01393086 00000-0 -71204-1 0 9998 2 47265 87.4221 29.6496 0012350 159.2393 201.4187 15.20023850 4350 ONEWEB-0120 1 47266U 20100J 21015.83334491 -.01379561 00000-0 -66037-1 0 9999 2 47266 87.4334 29.6381 0009254 164.9313 18.4187 15.22269817 4356 ONEWEB-0121 1 47267U 20100K 21015.83334491 -.01377755 00000-0 -11551+0 0 9992 2 47267 87.3852 29.7628 0011227 169.4976 261.4748 15.01663581 4338 ONEWEB-0122 1 47268U 20100L 21015.80626423 -.00362232 00000-0 -31269-1 0 9992 2 47268 87.3679 29.7916 0012541 162.2145 197.9530 14.99219451 4325 ONEWEB-0123 1 47269U 20100M 21015.83334491 -.01400187 00000-0 -73482-1 0 9993 2 47269 87.4305 29.6575 0007947 157.9632 284.3954 15.19203100 4350 ONEWEB-0124 1 47270U 20100N 21015.83334491 -.01416739 00000-0 -10565+0 0 9996 2 47270 87.4239 29.7285 0009864 149.1247 206.2975 15.06148877 4320 ONEWEB-0125 1 47271U 20100P 21014.57687681 -.00425952 00000-0 -21317-1 0 9994 2 47271 87.4026 30.1245 0007773 151.4319 208.7352 15.19427055 4148 ONEWEB-0126 1 47272U 20100Q 21015.83334491 -.01384893 00000-0 -67203-1 0 9996 2 47272 87.4257 29.6474 0010381 147.9019 295.5877 15.21804017 4346 ONEWEB-0127 1 47273U 20100R 21015.85405590 -.00434652 00000-0 -17936-1 0 9994 2 47273 87.4319 29.6309 0013328 155.2552 204.9337 15.25911875 4352 ONEWEB-0128 1 47274U 20100S 21015.56271914 -.00435996 00000-0 -15579-1 0 9997 2 47274 87.4135 29.6916 0012161 140.7493 219.4641 15.30640987 4314 ONEWEB-0129 1 47275U 20100T 21015.58335648 -.01487418 00000-0 -88183-1 0 9993 2 47275 87.4090 29.7819 0011261 170.0079 302.8598 15.14569369 1764 ONEWEB-0130 1 47276U 20100U 21015.83334491 -.01419470 00000-0 -78307-1 0 9997 2 47276 87.4383 29.6762 0009084 148.5679 212.3776 15.16982891 4343 ONEWEB-0131 1 47277U 20100V 21015.83334491 -.01398177 00000-0 -72409-1 0 9995 2 47277 87.4287 29.6496 0007965 155.0934 303.3119 15.19653715 4349 ONEWEB-0132 1 47278U 20100W 21015.81218944 -.00358151 00000-0 -22898-1 0 9992 2 47278 87.3931 29.7456 0009527 154.4138 205.7574 15.10431132 4323 ONEWEB-0133 1 47279U 20100X 21015.83334491 -.01368512 00000-0 -60318-1 0 9993 2 47279 87.4411 29.6233 0013107 160.3144 141.1573 15.24946238 4349 ONEWEB-0134 1 47280U 20100Y 21015.83334491 -.01394019 00000-0 -65704-1 0 9990 2 47280 87.4385 29.6330 0011904 165.1918 59.3654 15.22784198 4347 ONEWEB-0135 1 47281U 20100Z 21015.83334491 -.01396567 00000-0 -58607-1 0 9995 2 47281 87.4344 29.5975 0013307 143.5106 251.2484 15.26629477 4352 ONEWEB-0136 1 47282U 20100AA 21015.58335648 -.01472187 00000-0 -77570-1 0 9996 2 47282 87.4294 29.7416 0008705 150.1485 315.7846 15.18690514 1861 ONEWEB-0137 1 47283U 20100AB 21015.83334491 -.01357316 00000-0 -10581+0 0 9993 2 47283 87.3996 29.7517 0011824 150.2414 74.5245 15.04339222 4329 ONEWEB-0138 1 47284U 20100AC 21015.80464040 -.00401862 00000-0 -29187-1 0 9994 2 47284 87.3656 29.7275 0009293 153.6012 206.5700 15.05978293 4323 ONEWEB-0139 1 47285U 20100AD 21015.83334491 -.01376008 00000-0 -62008-1 0 9997 2 47285 87.4371 29.6197 0013433 146.2061 186.9660 15.24219236 4348 ONEWEB-0140 1 47286U 20100AE 21015.83334491 -.01404003 00000-0 -86971-1 0 9990 2 47286 87.3950 29.6976 0009727 173.0352 200.0242 15.12855853 4317 ONEWEB-0141 1 47287U 20100AF 21015.83334491 -.01413119 00000-0 -89965-1 0 9995 2 47287 87.3940 29.7054 0012414 155.7120 243.1377 15.11857574 4332 ONEWEB-0142 1 47288U 20100AG 21015.83334491 -.01370614 00000-0 -72995-1 0 9993 2 47288 87.4346 29.6699 0008333 153.1475 267.5121 15.18618817 4348 ONEWEB-0143 1 47289U 20100AH 21015.84820241 -.00396233 00000-0 -23785-1 0 9995 2 47289 87.3934 29.7154 0011103 161.3596 198.8053 15.12865410 4338 ONEWEB-0144 1 47290U 20100AJ 21015.83334491 -.01394906 00000-0 -94987-1 0 9991 2 47290 87.3831 29.7281 0009195 169.3268 29.1787 15.09436542 4313 ONEWEB-0145 1 47291U 20100AK 21015.83334491 -.01396450 00000-0 -60548-1 0 9994 2 47291 87.4291 29.6056 0013494 146.1934 204.8605 15.25547645 4332 ONEWEB-0146 1 47292U 20100AL 21015.85828120 -.00413006 00000-0 -21694-1 0 9999 2 47292 87.4202 29.6837 0011659 164.5452 195.6150 15.17644030 4331 ONEWEB-0147 1 47293U 20100AM 21015.83334491 -.01412196 00000-0 -96486-1 0 9992 2 47293 87.3892 29.6865 0010852 148.7842 284.8624 15.09331039 4327